Buckeye, AZ

2:08 AM MST on October 18, 2019 (GMT -0700)
Buckeye Municipal

Weather History for KBXK - May, 2019

Change the Weather History Date:

Friday, May 17, 2019

  Actual Average (KGYR) Record (KGYR)
Temperature  
Mean Temperature 66 °F -  
Max Temperature 80 °F 93 °F 105 °F (2003)
Min Temperature 53 °F 64 °F 57 °F (1998)
Cooling Degree Days 2    
Growing Degree Days 16 (Base 50)    
Moisture  
Dew Point 31 °F    
Average Humidity 27    
Maximum Humidity 54    
Minimum Humidity 14    
Precipitation  
Precipitation 0.00 in - - ()
Sea Level Pressure  
Sea Level Pressure 29.86 in    
Wind  
Wind Speed 9 mph (WSW)    
Max Wind Speed 16 mph    
Max Gust Speed 25 mph    
Visibility 10 miles    
Events      
Averages and records for this station are not official NWS values.
T = Trace of Precipitation, MM = Missing Value Source: NWS Daily Summary

Daily Weather History Graph

Daily Weather History Graph

Search for Another Location

Airport or City:

Astronomy

May. 17, 2019 Rise Set
Actual Time 5:29 AM MST 7:25 PM MST
Civil Twilight 5:01 AM MST 7:53 PM MST
Nautical Twilight 4:28 AM MST 8:26 PM MST
Astronomical Twilight 3:52 AM MST 9:02 PM MST
Moon 6:23 PM MST (5/17) 4:54 AM MST (5/17)
Length of Visible Light 14h 51m
Length of Day
13h 56m
Waxing Gibbous, 99% of the Moon is Illuminated
May 17
Waxing Gibbous
May 18
Full
May 26
Last Quarter
Jun 3
New
Jun 9
First Quarter

Hourly Weather History & Observations

Time (MST) Temp. Dew Point Humidity Pressure Visibility Wind Dir Wind Speed Gust Speed Precip Events Conditions
12:15 AM 66.2 °F 32.0 °F 28% 29.82 in 10.0 mi WNW 15.0 mph - N/A   Clear
12:35 AM 64.4 °F 32.0 °F 30% 29.83 in 10.0 mi WNW 13.8 mph - N/A   Scattered Clouds
12:55 AM 64.4 °F 28.4 °F 26% 29.83 in 10.0 mi West 9.2 mph - N/A   Unknown
1:15 AM 62.6 °F 28.4 °F 27% 29.83 in 10.0 mi West 8.1 mph - N/A   Partly Cloudy
1:35 AM 62.6 °F 26.6 °F 26% 29.83 in 10.0 mi West 9.2 mph - N/A   Clear
1:55 AM 60.8 °F 26.6 °F 27% 29.82 in 10.0 mi WSW 8.1 mph - N/A   Clear
2:15 AM 59.0 °F 26.6 °F 29% 29.83 in 10.0 mi WNW 8.1 mph - N/A   Clear
2:35 AM 59.0 °F 26.6 °F 29% 29.84 in 10.0 mi West 5.8 mph - N/A   Partly Cloudy
2:55 AM 59.0 °F 32.0 °F 36% 29.84 in 10.0 mi WSW 8.1 mph - N/A   Unknown
3:15 AM 57.2 °F 32.0 °F 38% 29.84 in 10.0 mi SW 5.8 mph - N/A   Scattered Clouds
3:35 AM 57.2 °F 32.0 °F 38% 29.85 in 10.0 mi SW 5.8 mph - N/A   Unknown
3:55 AM 55.4 °F 33.8 °F 44% 29.85 in 10.0 mi SSE 5.8 mph - N/A   Unknown
4:15 AM 55.4 °F 33.8 °F 44% 29.85 in 10.0 mi SSW 3.5 mph - N/A   Clear
4:35 AM 55.4 °F 32.0 °F 41% 29.86 in 10.0 mi SW 6.9 mph - N/A   Clear
4:55 AM 53.6 °F 35.6 °F 51% 29.86 in 10.0 mi SW 6.9 mph - N/A   Clear
5:15 AM 53.6 °F 35.6 °F 51% 29.87 in 10.0 mi Calm Calm - N/A   Unknown
5:35 AM 53.6 °F 35.6 °F 51% 29.88 in 10.0 mi SE 4.6 mph - N/A   Clear
5:55 AM 53.6 °F 37.4 °F 54% 29.89 in 10.0 mi SE 3.5 mph - N/A   Clear
6:15 AM 55.4 °F 35.6 °F 47% 29.89 in 10.0 mi SE 3.5 mph - N/A   Clear
6:35 AM 57.2 °F 37.4 °F 48% 29.90 in 10.0 mi ESE 3.5 mph - N/A   Clear
6:55 AM 57.2 °F 39.2 °F 51% 29.90 in 8.0 mi South 5.8 mph - N/A   Clear
7:15 AM 59.0 °F 39.2 °F 48% 29.90 in 8.0 mi South 5.8 mph - N/A   Clear
7:35 AM 60.8 °F 37.4 °F 42% 29.91 in 10.0 mi South 8.1 mph - N/A   Clear
7:55 AM 62.6 °F 35.6 °F 37% 29.91 in 10.0 mi South 6.9 mph - N/A   Clear
8:15 AM 62.6 °F 35.6 °F 37% 29.91 in 4.0 mi SSW 6.9 mph - N/A   Clear
8:35 AM 64.4 °F 35.6 °F 34% 29.91 in 10.0 mi SW 6.9 mph - N/A   Clear
8:55 AM 66.2 °F 35.6 °F 32% 29.92 in 10.0 mi WSW 4.6 mph - N/A   Clear
9:15 AM 66.2 °F 35.6 °F 32% 29.92 in 10.0 mi WSW 8.1 mph - N/A   Clear
9:35 AM 68.0 °F 35.6 °F 30% 29.92 in 9.0 mi SW 10.4 mph - N/A   Clear
9:55 AM 68.0 °F 35.6 °F 30% 29.91 in 9.0 mi WSW 4.6 mph - N/A   Clear
10:15 AM 69.8 °F 35.6 °F 28% 29.92 in 10.0 mi SSW 6.9 mph - N/A   Clear
10:35 AM 71.6 °F 33.8 °F 25% 29.92 in 9.0 mi WSW 6.9 mph - N/A   Clear
10:55 AM 71.6 °F 33.8 °F 25% 29.92 in 9.0 mi SSW 9.2 mph - N/A   Clear
11:15 AM 71.6 °F 32.0 °F 23% 29.92 in 10.0 mi SSW 11.5 mph 18.4 mph N/A   Clear
11:35 AM 73.4 °F 32.0 °F 22% 29.91 in 9.0 mi SSW 11.5 mph - N/A   Clear
11:55 AM 73.4 °F 32.0 °F 22% 29.90 in 9.0 mi South 9.2 mph 16.1 mph N/A   Clear
12:15 PM 75.2 °F 32.0 °F 21% 29.89 in 9.0 mi WSW 9.2 mph - N/A   Clear
12:35 PM 75.2 °F 32.0 °F 21% 29.89 in 8.0 mi WSW 13.8 mph 19.6 mph N/A   Clear
12:55 PM 75.2 °F 32.0 °F 21% 29.88 in 8.0 mi SW 12.7 mph 19.6 mph N/A   Clear
1:15 PM 75.2 °F 32.0 °F 21% 29.87 in 9.0 mi SSW 12.7 mph - N/A   Clear
1:35 PM 77.0 °F 32.0 °F 19% 29.87 in 8.0 mi WSW 16.1 mph 23.0 mph N/A   Clear
1:55 PM 77.0 °F 32.0 °F 19% 29.87 in 8.0 mi West 12.7 mph 16.1 mph N/A   Clear
2:15 PM 77.0 °F 32.0 °F 19% 29.87 in 8.0 mi West 11.5 mph 18.4 mph N/A   Clear
2:35 PM 77.0 °F 32.0 °F 19% 29.86 in 10.0 mi SW 9.2 mph - N/A   Clear
2:55 PM 78.8 °F 32.0 °F 18% 29.85 in 9.0 mi SW 10.4 mph 21.9 mph N/A   Clear
3:15 PM 80.6 °F 32.0 °F 17% 29.84 in 8.0 mi SSW 11.5 mph 19.6 mph N/A   Clear
3:35 PM 80.6 °F 32.0 °F 17% 29.84 in 8.0 mi West 16.1 mph 19.6 mph N/A   Clear
3:55 PM 78.8 °F 30.2 °F 17% 29.83 in 9.0 mi SW 12.7 mph 20.7 mph N/A   Clear
4:15 PM 80.6 °F 30.2 °F 16% 29.82 in 10.0 mi SW 16.1 mph 21.9 mph N/A   Clear
4:35 PM 80.6 °F 30.2 °F 16% 29.82 in 10.0 mi West 16.1 mph 21.9 mph N/A   Clear
4:55 PM 78.8 °F 28.4 °F 16% 29.81 in 10.0 mi West 5.8 mph - N/A   Clear
5:15 PM 80.6 °F 28.4 °F 15% 29.81 in 10.0 mi West 12.7 mph 25.3 mph N/A   Clear
5:35 PM 80.6 °F 28.4 °F 15% 29.81 in 10.0 mi WSW 8.1 mph - N/A   Clear
5:55 PM 80.6 °F 28.4 °F 15% 29.80 in 10.0 mi West 11.5 mph - N/A   Clear
6:15 PM 78.8 °F 26.6 °F 15% 29.81 in 10.0 mi WNW 9.2 mph 17.3 mph N/A   Clear
6:35 PM 78.8 °F 24.8 °F 14% 29.80 in 10.0 mi WNW 13.8 mph - N/A   Clear
6:55 PM 77.0 °F 24.8 °F 14% 29.81 in 10.0 mi NW 11.5 mph - N/A   Clear
7:15 PM 77.0 °F 26.6 °F 16% 29.82 in 10.0 mi WNW 9.2 mph - N/A   Clear
7:35 PM 75.2 °F 26.6 °F 17% 29.82 in 10.0 mi NW 8.1 mph - N/A   Clear
7:55 PM 73.4 °F 24.8 °F 16% 29.83 in 10.0 mi NW 6.9 mph - N/A   Clear
8:15 PM 71.6 °F 24.8 °F 17% 29.83 in 10.0 mi WNW 4.6 mph - N/A   Clear
8:35 PM 68.0 °F 28.4 °F 23% 29.84 in 10.0 mi SSW 4.6 mph - N/A   Clear
8:55 PM 68.0 °F 30.2 °F 24% 29.85 in 6.0 mi SW 9.2 mph - N/A   Clear
9:15 PM 71.6 °F 28.4 °F 20% 29.85 in 10.0 mi SW 9.2 mph - N/A   Clear
9:35 PM 69.8 °F 28.4 °F 21% 29.86 in 10.0 mi West 5.8 mph - N/A   Clear
9:55 PM 71.6 °F 28.4 °F 20% 29.86 in 10.0 mi WSW 9.2 mph - N/A   Clear
10:15 PM 68.0 °F 28.4 °F 23% 29.86 in 10.0 mi WSW 6.9 mph - N/A   Unknown
10:35 PM 66.2 °F 28.4 °F 24% 29.86 in 10.0 mi West 5.8 mph - N/A   Clear
10:55 PM 66.2 °F 28.4 °F 24% 29.85 in 10.0 mi West 3.5 mph - N/A   Clear
11:15 PM 64.4 °F 30.2 °F 28% 29.86 in 10.0 mi West 5.8 mph - N/A   Clear
11:35 PM 64.4 °F 26.6 °F 24% 29.86 in 10.0 mi WNW 5.8 mph - N/A   Clear
11:55 PM 62.6 °F 26.6 °F 26% 29.86 in 10.0 mi WNW 5.8 mph - N/A   Clear